Location: Oregon Star Party
(44.2935°N, 120.1332°W)
Time: 21:46:46
(UTC-07:00)

Amateur Radio Satellites - All Passes

Search period start: 04 May 2016 21:16
Search period end: 05 May 2016 21:16
Location: Oregon Star Party, 44.2935°N, 120.1332°W

Satellite Date Start Highest point End Downlink Frequencies (MHz)
Time Altitude Azimuth
DOVE 4 04 May 21:20:09 21:21:24 11° 275° (W) 21:22:39 437.250
Oscar 11 04 May 21:29:17 21:33:36 89° 66° (ENE) 21:37:56 145.826/435.025
PRISM 04 May 21:29:53 21:34:05 86° 99° (E) 21:38:17 437.425
HUMSAT D 04 May 21:36:15 21:39:40 24° 67° (ENE) 21:43:02 437.325/437.525
CUTE 1.7 + AOD 2 04 May 21:36:52 21:39:17 15° 270° (W) 21:41:41 437.475
AIST 2 04 May 21:37:25 21:41:11 33° 313° (NW) 21:44:59 435.215
STRAND 1 04 May 21:41:35 21:45:31 23° 297° (WNW) 21:49:26 437.568
HO-68 04 May 21:42:43 21:48:22 25° 268° (W) 21:54:03 435.675
FUNcube-1 04 May 21:44:02 21:48:33 78° 258° (WSW) 21:52:59 145.935
CINEMA 3 04 May 21:44:49 21:47:52 16° 271° (W) 21:50:56 145.822/145.860
DELFI C3 04 May 21:45:13 21:49:07 64° 75° (ENE) 21:53:03 145.870
RS-15 04 May 21:48:57 22:00:07 71° 117° (ESE) 22:11:57 29.354- 29.394
COMPASS 1 04 May 21:59:00 22:01:28 15° 269° (W) 22:03:56 437.405
SEEDS 04 May 22:01:22 22:02:31 11° 271° (W) 22:03:41 437.485
UWE-3 04 May 22:02:36 22:06:47 34° 264° (W) 22:10:56 435.000/436.395/437.385
PCSat 04 May 22:12:20 22:14:04 11° 29° (NNE) 22:15:48 145.827
CUBEBUG 2 04 May 22:16:01 22:19:25 19° 268° (W) 22:22:46 437.445
ESTCUBE 1 04 May 22:19:31 22:22:20 17° 62° (ENE) 22:25:10 437.505/2401.250
CUBEBUG 1 04 May 22:22:51 22:24:46 13° 60° (ENE) 22:26:42 437.445
AO-85 04 May 22:28:26 22:31:56 21° 250° (WSW) 22:35:13 145.980
ZACube-1 04 May 22:28:31 22:32:18 26° 265° (W) 22:36:04 437.345
50 SAT 04 May 22:34:56 22:37:03 15° 65° (ENE) 22:39:10 437.505
UNISAT 6 04 May 22:38:56 22:42:20 22° 93° (E) 22:45:41 437.425
Cosmos 2504 04 May 22:40:34 22:45:24 19° 298° (WNW) 22:50:16 435.465 / 435.565
DX 1 04 May 22:43:52 22:46:56 19° 63° (ENE) 22:50:01 434.975-435.025
UKube-1 04 May 22:46:22 22:49:06 17° 62° (ENE) 22:51:51 .
VELOX 1 04 May 22:54:20 22:58:02 26° 66° (ENE) 23:01:45 145.980
TIGRISAT 04 May 22:55:19 22:59:10 31° 96° (E) 23:02:58 435.000
PRISM 04 May 23:08:05 23:08:45 10° 301° (WNW) 23:09:24 437.425
HUMSAT D 04 May 23:11:24 23:15:10 31° 264° (W) 23:18:54 437.325/437.525
SPROUT 04 May 23:12:01 23:14:36 16° 62° (ENE) 23:17:10 437.525
ANTELSAT 04 May 23:20:29 23:24:47 62° 101° (ESE) 23:28:59 437.575/2403.000
DELFI C3 04 May 23:23:44 23:24:26 10° 271° (W) 23:25:07 145.870
AISAT 04 May 23:25:58 23:30:20 57° 72° (ENE) 23:34:44 437.250
NANOSAT C BR1 04 May 23:29:53 23:32:19 15° 91° (E) 23:34:44 145.865
AIST 1 04 May 23:36:51 23:39:52 19° 86° (E) 23:42:55
O/OREOS (USA 219) 04 May 23:43:55 23:48:00 32° 58° (ENE) 23:52:02 437.305
PCSat 04 May 23:53:45 23:58:57 43° 51° (NE) 00:04:07 145.827
ESTCUBE 1 04 May 23:54:18 23:58:42 56° 260° (W) 00:03:09 437.505/2401.250
CUBEBUG 1 04 May 23:56:04 00:00:26 76° 257° (WSW) 00:04:54 437.445
RS-15 05 May 00:02:35 00:13:28 45° 324° (NW) 00:24:57 29.354- 29.394
50 SAT 05 May 00:07:04 00:10:31 40° 261° (W) 00:13:59 437.505
CUSAT 1 05 May 00:07:09 00:11:05 15° 59° (ENE) 00:15:14 437.405
UNISAT 6 05 May 00:15:14 00:19:09 34° 291° (WNW) 00:23:01 437.425
DX 1 05 May 00:18:35 00:22:47 46° 261° (W) 00:27:02 434.975-435.025
DUCHIFAT 1 05 May 00:19:52 00:23:58 48° 99° (E) 00:28:01 145.980
UKube-1 05 May 00:20:31 00:24:44 53° 259° (W) 00:29:01 .
GONETS M04 05 May 00:21:34 00:30:07 57° 90° (E) 00:38:40
JAS-2 05 May 00:22:50 00:27:11 15° 84° (E) 00:31:28 435.910
QB50P2 05 May 00:23:34 00:27:48 63° 101° (ESE) 00:31:57 145.880/145.840
POLYITAN 1 05 May 00:25:46 00:29:59 64° 101° (ESE) 00:34:08 437.675
POPSAT HIP 1 05 May 00:27:42 00:31:56 65° 101° (ESE) 00:36:06 437.405
VELOX 1 05 May 00:30:23 00:34:22 32° 263° (W) 00:38:25 145.980
QB50P1 05 May 00:30:40 00:34:56 72° 102° (ESE) 00:39:08 145.935-145.965
TIGRISAT 05 May 00:32:13 00:35:45 25° 294° (WNW) 00:39:15 435.000
Cosmos 2499 05 May 00:43:38 00:50:01 38° 87° (E) 00:56:29 435.465 / 435.565
SPROUT 05 May 00:45:52 00:50:06 57° 259° (W) 00:54:23 437.525
SWISSCUBE 05 May 00:48:49 00:50:58 13° 58° (ENE) 00:53:07 437.505
BUGSAT 1 05 May 00:51:39 00:55:47 53° 100° (E) 00:59:48 437.445
ANTELSAT 05 May 00:58:42 01:00:59 14° 299° (WNW) 01:03:15 437.575/2403.000
NANOSAT C BR1 05 May 01:04:15 01:08:22 51° 288° (WNW) 01:12:26 145.865
AISAT 05 May 01:04:36 01:07:11 15° 269° (W) 01:09:45 437.250
DANDE 05 May 01:10:24 01:15:18 21° 66° (ENE) 01:20:51 436.750
TISAT 1 05 May 01:10:42 01:14:58 83° 75° (ENE) 01:19:16 437.305
AIST 1 05 May 01:13:05 01:17:09 39° 284° (WNW) 01:21:17
BEESAT 05 May 01:19:53 01:23:34 23° 64° (ENE) 01:27:16 436.000
O/OREOS (USA 219) 05 May 01:23:27 01:27:19 28° 256° (WSW) 01:31:08 437.305
Oscar 19 05 May 01:26:51 01:30:33 19° 91° (E) 01:34:13 437.125/150
PCSat 05 May 01:37:29 01:42:11 31° 250° (WSW) 01:46:52 145.827
Gurwin Techsat 1B 05 May 01:43:00 01:44:15 11° 86° (E) 01:45:30 435.225
CUSAT 1 05 May 01:47:06 01:54:25 65° 77° (ENE) 02:02:27 437.405
DUCHIFAT 1 05 May 01:56:33 01:59:17 17° 297° (WNW) 02:02:01 145.980
QB50P2 05 May 02:00:55 02:03:06 14° 299° (WNW) 02:05:16 145.880/145.840
POLYITAN 1 05 May 02:03:10 02:05:16 14° 299° (WNW) 02:07:23 437.675
POPSAT HIP 1 05 May 02:05:07 02:07:11 13° 299° (WNW) 02:09:15 437.405
JAS-2 05 May 02:05:28 02:13:20 75° 103° (ESE) 02:21:06 435.910
QB50P1 05 May 02:08:21 02:10:08 12° 300° (WNW) 02:11:54 145.935-145.965
BEESAT 3 05 May 02:13:59 02:17:39 35° 48° (NE) 02:21:18 437.485
ITUPSAT 1 05 May 02:15:16 02:20:01 73° 74° (ENE) 02:24:47 437.325
GONETS M04 05 May 02:19:25 02:27:19 35° 292° (WNW) 02:35:16
RS-15 05 May 02:20:20 02:30:07 28° 358° (N) 02:40:12 29.354- 29.394
SWISSCUBE 05 May 02:23:20 02:28:05 84° 256° (WSW) 02:32:53 437.505
BEESAT 2 05 May 02:26:09 02:29:43 30° 46° (NE) 02:33:14 435.950
BUGSAT 1 05 May 02:28:13 02:30:44 16° 298° (WNW) 02:33:13 437.445
Cosmos 2499 05 May 02:36:34 02:43:05 39° 288° (WNW) 02:49:43 435.465 / 435.565
KKS-1 05 May 02:44:37 02:47:58 21° 64° (ENE) 02:51:19 437.445
ITAMSAT 1 05 May 02:50:48 02:54:31 20° 92° (E) 02:58:14 435.822/435.867
DANDE 05 May 02:51:55 02:58:41 88° 264° (W) 03:06:53 436.750
STARS 05 May 02:55:26 02:57:54 15° 61° (ENE) 03:00:22 437.465
BEESAT 05 May 02:56:34 03:01:05 44° 261° (W) 03:05:40 436.000
Oscar 19 05 May 03:05:08 03:10:15 57° 289° (WNW) 03:15:18 437.125/150
MOZHAYETS 4 05 May 03:05:53 03:09:21 22° 65° (ENE) 03:12:50
Gurwin Techsat 1B 05 May 03:19:38 03:25:00 84° 104° (ESE) 03:30:19 435.225
CUSAT 1 05 May 03:29:55 03:36:10 30° 273° (W) 03:42:52 437.405
JAS-2 05 May 03:51:20 03:57:37 28° 301° (WNW) 04:03:57 435.910
BEESAT 3 05 May 03:52:00 03:55:11 24° 246° (WSW) 03:58:22 437.485
AO-7 05 May 03:55:44 04:02:59 32° 96° (E) 04:10:12 29.400- 29.500
ITUPSAT 1 05 May 03:56:13 03:58:23 13° 271° (W) 04:00:33 437.325
BEESAT 2 05 May 04:04:02 04:07:32 30° 244° (WSW) 04:11:01 435.950
AIST 2 05 May 04:18:40 04:22:26 33° 47° (NE) 04:26:11 435.215
KKS-1 05 May 04:19:58 04:24:14 43° 261° (W) 04:28:33 437.445
ITAMSAT 1 05 May 04:29:16 04:34:21 56° 289° (WNW) 04:39:24 435.822/435.867
STARS 05 May 04:29:20 04:33:45 65° 258° (WSW) 04:38:11 437.465
RS-15 05 May 04:35:48 04:47:06 41° 32° (NNE) 04:58:32 29.354- 29.394
DANDE 05 May 04:36:26 04:40:59 19° 275° (W) 04:46:00 436.750
MOZHAYETS 4 05 May 04:41:56 04:46:15 42° 262° (W) 04:50:37
YUBILEINY 05 May 04:45:14 04:52:27 28° 65° (ENE) 04:59:39 435.215
CUBESAT XI-V 05 May 04:57:13 05:01:20 34° 68° (ENE) 05:05:31 437.345
Gurwin Techsat 1B 05 May 05:01:14 05:04:15 15° 302° (WNW) 05:07:15 435.225
Cosmos 2491 05 May 05:33:16 05:39:56 25° 79° (E) 05:46:35 435.465 / 435.565
HORYU 2 05 May 05:36:27 05:40:49 55° 101° (E) 05:45:08 437.375
ISS 05 May 05:42:30 05:43:13 11° 130° (SE) 05:43:56 145.825
SO-50 05 May 05:42:44 05:45:20 14° 108° (ESE) 05:47:57 436.795
STRAND 1 05 May 05:43:39 05:45:46 13° 57° (ENE) 05:47:54 437.568
AO-7 05 May 05:48:02 05:56:13 63° 295° (WNW) 06:04:23 29.400- 29.500
AIST 2 05 May 05:57:16 06:00:51 28° 245° (WSW) 06:04:25 435.215
CUTE-I 05 May 06:17:46 06:21:28 19° 91° (E) 06:25:09 437.470
Cosmos 2504 05 May 06:33:23 06:40:08 33° 70° (ENE) 06:47:16 435.465 / 435.565
CUBESAT XI-V 05 May 06:34:53 06:38:45 26° 266° (W) 06:42:40 437.345
YUBILEINY 05 May 06:41:24 06:50:02 70° 267° (W) 06:58:40 435.215
RS-15 05 May 06:48:45 07:01:05 84° 238° (WSW) 07:13:23 29.354- 29.394
NOAA 15 05 May 06:50:18 06:55:32 53° 100° (E) 07:00:43 137.62
NOAA 18 05 May 06:52:19 06:57:36 48° 100° (E) 07:02:50 137.9125
BRITE-PL 05 May 06:55:10 07:00:40 46° 97° (E) 07:05:59 437.365/2234.400
Cubesat XI-IV 05 May 07:02:03 07:07:11 46° 99° (E) 07:12:17 437.490
HORYU 2 05 May 07:14:10 07:16:57 17° 298° (WNW) 07:19:43 437.375
ISS 05 May 07:15:54 07:19:09 77° 147° (SSE) 07:22:25 145.825
STRAND 1 05 May 07:19:03 07:24:09 85° 76° (ENE) 07:29:17 437.568
SO-50 05 May 07:20:16 07:25:12 81° 305° (NW) 07:30:09 436.795
LilacSat-2 05 May 07:22:37 07:26:26 77° 100° (E) 07:30:13 437.200
Cosmos 2491 05 May 07:26:59 07:35:49 76° 280° (W) 07:44:43 435.465 / 435.565
DOVE 4 05 May 07:36:04 07:40:20 26° 92° (E) 07:44:22 437.250
AO-7 05 May 07:42:40 07:47:23 17° 317° (NW) 07:52:07 29.400- 29.500
M-CUBED/EXP-1 PRIME 05 May 07:48:17 07:51:37 27° 100° (E) 07:54:42 437.505
GOMX 1 05 May 07:53:07 07:58:35 76° 103° (ESE) 08:03:45 467.674
CUTE-I 05 May 07:56:41 08:01:55 61° 289° (WNW) 08:07:09 437.470
CINEMA 3 05 May 08:00:42 08:02:55 13° 88° (E) 08:05:07 145.822/145.860
AUBIESAT-1 05 May 08:04:21 08:07:51 33° 102° (ESE) 08:11:07 437.475
PRISM 05 May 08:20:36 08:24:40 76° 74° (ENE) 08:28:47 437.425
Cosmos 2504 05 May 08:26:25 08:33:47 54° 269° (W) 08:41:41 435.465 / 435.565
NOAA 15 05 May 08:30:51 08:34:57 23° 298° (WNW) 08:39:02 137.62
AAUSAT CUBESAT 2 05 May 08:33:04 08:34:21 11° 89° (E) 08:35:38 437.432
NOAA 18 05 May 08:33:32 08:37:59 26° 298° (WNW) 08:42:26 137.9125
BRITE-PL 05 May 08:34:01 08:38:52 29° 295° (WNW) 08:43:38 437.365/2234.400
YUBILEINY 05 May 08:41:22 08:45:06 14° 288° (WNW) 08:48:52 435.215
Cubesat XI-IV 05 May 08:42:39 08:47:00 26° 297° (WNW) 08:51:20 437.490
PHONESAT 2.4 05 May 08:44:06 08:45:26 12° 152° (SSE) 08:46:46 2401.200-2431.200
CANX-2 05 May 08:45:44 08:49:45 42° 98° (E) 08:53:47 2200.000
ISS 05 May 08:52:59 08:55:53 28° 346° (NNW) 08:58:45 145.825
STRAND 1 05 May 09:02:00 09:03:59 12° 272° (W) 09:05:59 437.568
RS-15 05 May 09:02:59 09:11:45 24° 261° (W) 09:20:32 29.354- 29.394
SO-50 05 May 09:03:10 09:06:28 17° 326° (NW) 09:09:45 436.795
HO-68 05 May 09:06:25 09:13:31 61° 103° (ESE) 09:20:34 435.675
DOVE 4 05 May 09:13:23 09:18:08 39° 291° (WNW) 09:22:37 437.250
Oscar 11 05 May 09:16:17 09:18:41 14° 90° (E) 09:21:04 145.826/435.025
CUTE 1.7 + AOD 2 05 May 09:17:51 09:22:07 84° 106° (ESE) 09:26:21 437.475
M-CUBED/EXP-1 PRIME 05 May 09:22:55 09:26:05 24° 300° (WNW) 09:29:04 437.505
Cosmos 2491 05 May 09:28:51 09:34:21 18° 303° (WNW) 09:39:55 435.465 / 435.565
FUNcube-1 05 May 09:31:44 09:34:27 17° 91° (E) 09:37:07 145.935
GOMX 1 05 May 09:32:31 09:35:57 17° 301° (WNW) 09:39:19 467.674
CINEMA 3 05 May 09:36:01 09:40:36 63° 286° (WNW) 09:44:55 145.822/145.860
COMPASS 1 05 May 09:38:06 09:42:17 75° 102° (ESE) 09:46:27 437.405
UNISAT 6 05 May 09:39:00 09:42:51 27° 67° (ENE) 09:46:39 437.425
AUBIESAT-1 05 May 09:39:20 09:42:08 19° 301° (WNW) 09:44:47 437.475
SEEDS 05 May 09:40:01 09:44:13 76° 284° (WNW) 09:48:24 437.485
UWE-3 05 May 09:50:28 09:54:30 41° 98° (E) 09:58:26 435.000/436.395/437.385
TIGRISAT 05 May 09:55:05 09:59:18 36° 69° (ENE) 10:03:26 435.000
CUBEBUG 2 05 May 10:03:54 10:08:14 86° 100° (E) 10:12:25 437.445
AAUSAT CUBESAT 2 05 May 10:06:09 10:10:17 66° 285° (WNW) 10:14:24 437.432
ZACube-1 05 May 10:14:33 10:18:40 51° 100° (E) 10:22:42 437.345
PHONESAT 2.4 05 May 10:18:52 10:21:44 32° 168° (SSE) 10:24:35 2401.200-2431.200
ANTELSAT 05 May 10:20:15 10:24:51 67° 74° (ENE) 10:29:22 437.575/2403.000
CANX-2 05 May 10:22:20 10:25:20 19° 295° (WNW) 10:28:20 2200.000
NANOSAT C BR1 05 May 10:23:55 10:26:23 15° 62° (ENE) 10:28:51 145.865
GONETS M04 05 May 10:30:07 10:37:37 30° 66° (ENE) 10:45:01
ISS 05 May 10:30:21 10:33:01 23° 6° (N) 10:35:42 145.825
Cosmos 2499 05 May 10:32:03 10:36:41 16° 60° (ENE) 10:41:28 435.465 / 435.565
Oscar 11 05 May 10:50:56 10:55:09 55° 287° (WNW) 10:59:21 145.826/435.025
HUMSAT D 05 May 10:52:54 10:56:38 34° 97° (E) 11:00:21 437.325/437.525
HO-68 05 May 10:54:48 11:00:48 30° 302° (WNW) 11:06:48 435.675
DELFI C3 05 May 10:56:01 11:00:02 88° 111° (ESE) 11:04:02 145.870
CUTE 1.7 + AOD 2 05 May 10:56:25 10:57:18 11° 300° (WNW) 10:58:11 437.475
AO-85 05 May 11:04:37 11:07:18 14° 106° (ESE) 11:10:00 145.980
FUNcube-1 05 May 11:06:58 11:10:57 43° 289° (WNW) 11:14:52 145.935
DUCHIFAT 1 05 May 11:13:01 11:17:04 44° 71° (ENE) 11:21:07 145.980
UNISAT 6 05 May 11:15:13 11:19:26 34° 263° (W) 11:23:36 437.425
COMPASS 1 05 May 11:15:50 11:17:15 12° 299° (WNW) 11:18:41 437.405
QB50P2 05 May 11:17:22 11:21:34 57° 73° (ENE) 11:25:47 145.880/145.840
AIST 1 05 May 11:18:01 11:22:23 57° 79° (ENE) 11:26:43
POLYITAN 1 05 May 11:19:33 11:23:46 58° 73° (ENE) 11:28:00 437.675
POPSAT HIP 1 05 May 11:21:20 11:25:33 59° 73° (ENE) 11:29:47 437.405
QB50P1 05 May 11:24:15 11:28:29 64° 74° (ENE) 11:32:45 145.935-145.965
UWE-3 05 May 11:27:41 11:30:40 19° 296° (WNW) 11:33:36 435.000/436.395/437.385
TIGRISAT 05 May 11:32:14 11:36:02 25° 266° (W) 11:39:48 435.000
50 SAT 05 May 11:36:13 11:38:17 14° 92° (E) 11:40:20 437.505
BUGSAT 1 05 May 11:42:32 11:46:35 45° 71° (ENE) 11:50:40 437.445
CUBEBUG 2 05 May 11:43:21 11:44:09 10° 301° (WNW) 11:44:56 437.445
CUBEBUG 1 05 May 11:44:01 11:47:05 18° 92° (E) 11:50:08 437.445
ESTCUBE 1 05 May 11:45:27 11:49:17 26° 95° (E) 11:53:07 437.505/2401.250
ZACube-1 05 May 11:52:03 11:54:33 16° 297° (WNW) 11:57:01 437.345
PHONESAT 2.4 05 May 11:55:18 11:58:16 39° 185° (S) 12:01:15 2401.200-2431.200
NANOSAT C BR1 05 May 11:57:28 12:01:40 58° 259° (W) 12:05:54 145.865
ANTELSAT 05 May 11:59:44 12:01:59 13° 270° (W) 12:04:13 437.575/2403.000
DX 1 05 May 12:05:23 12:09:05 26° 95° (E) 12:12:44 434.975-435.025
UKube-1 05 May 12:06:33 12:09:56 22° 94° (E) 12:13:18 .
ISS 05 May 12:06:46 12:09:59 52° 25° (NNE) 12:13:12 145.825
VELOX 1 05 May 12:18:26 12:22:40 40° 98° (E) 12:26:51 145.980
JAS-2 05 May 12:19:29 12:25:11 38° 63° (ENE) 12:31:33 435.910
Cosmos 2499 05 May 12:23:16 12:31:04 77° 81° (E) 12:39:29 435.465 / 435.565
GONETS M04 05 May 12:26:28 12:35:06 65° 268° (W) 12:43:38
HUMSAT D 05 May 12:28:58 12:32:05 21° 294° (WNW) 12:35:11 437.325/437.525
SPROUT 05 May 12:30:53 12:34:13 21° 93° (E) 12:37:30 437.525
AO-85 05 May 12:41:37 12:47:06 86° 122° (ESE) 12:52:31 145.980
Oscar 19 05 May 12:44:53 12:49:29 33° 66° (ENE) 12:54:07 437.125/150
DUCHIFAT 1 05 May 12:50:03 12:52:58 18° 268° (W) 12:55:54 145.980
AISAT 05 May 12:50:49 12:55:20 88° 283° (WNW) 12:59:47 437.250
TISAT 1 05 May 12:55:24 12:56:46 11° 89° (E) 12:58:07 437.305
QB50P2 05 May 12:55:28 12:57:44 14° 270° (W) 13:00:00 145.880/145.840
AIST 1 05 May 12:57:14 12:59:28 14° 276° (W) 13:01:40
POLYITAN 1 05 May 12:57:44 12:59:56 14° 270° (W) 13:02:09 437.675
POPSAT HIP 1 05 May 12:59:34 13:01:43 14° 270° (W) 13:03:52 437.405
QB50P1 05 May 13:02:54 13:04:41 12° 271° (W) 13:06:29 145.935-145.965
Gurwin Techsat 1B 05 May 13:04:09 13:08:10 23° 62° (ENE) 13:12:13 435.225
50 SAT 05 May 13:08:49 13:12:15 39° 288° (WNW) 13:15:42 437.505
AO-7 05 May 13:09:44 13:13:16 13° 40° (NE) 13:16:49 29.400- 29.500
CUBEBUG 1 05 May 13:19:21 13:23:38 46° 289° (WNW) 13:27:51 437.445
BUGSAT 1 05 May 13:19:22 13:22:11 17° 268° (W) 13:25:03 437.445
ESTCUBE 1 05 May 13:22:04 13:26:07 33° 292° (WNW) 13:30:11 437.505/2401.250
PHONESAT 2.4 05 May 13:32:20 13:34:43 20° 201° (SSW) 13:37:07 2401.200-2431.200
DX 1 05 May 13:41:22 13:45:16 32° 292° (WNW) 13:49:09 434.975-435.025
UKube-1 05 May 13:42:05 13:46:06 37° 291° (WNW) 13:50:04 .
ISS 05 May 13:43:35 13:46:15 23° 223° (SW) 13:48:56 145.825
VELOX 1 05 May 13:55:27 13:58:53 22° 296° (WNW) 14:02:18 145.980
O/OREOS (USA 219) 05 May 13:58:04 14:01:53 27° 103° (ESE) 14:05:44 437.305
JAS-2 05 May 14:04:26 14:10:09 41° 265° (W) 14:16:39 435.910
SPROUT 05 May 14:06:19 14:10:17 36° 290° (WNW) 14:14:12 437.525
ITAMSAT 1 05 May 14:10:00 14:14:40 36° 67° (ENE) 14:19:22 435.822/435.867
SO-50 05 May 14:10:35 14:14:28 24° 40° (NE) 14:18:15 436.795
ITUPSAT 1 05 May 14:15:18 14:18:21 17° 91° (E) 14:21:21 437.325
Cosmos 2499 05 May 14:17:42 14:23:25 23° 279° (W) 14:29:25 435.465 / 435.565
SWISSCUBE 05 May 14:22:33 14:26:15 22° 93° (E) 14:29:56 437.505
AO-85 05 May 14:24:05 14:28:17 22° 323° (NW) 14:32:22 145.980
Oscar 19 05 May 14:24:06 14:28:46 33° 264° (W) 14:33:28 437.125/150
GONETS M04 05 May 14:27:03 14:30:02 12° 289° (WNW) 14:32:59
TISAT 1 05 May 14:28:41 14:32:54 68° 286° (WNW) 14:37:03 437.305
AISAT 05 May 14:30:00 14:31:04 11° 302° (WNW) 14:32:08 437.250
PCSat 05 May 14:37:41 14:42:10 27° 109° (ESE) 14:46:41 145.827
Gurwin Techsat 1B 05 May 14:42:33 14:47:45 54° 260° (W) 14:52:59 435.225
CUSAT 1 05 May 14:53:51 14:57:26 43° 92° (E) 15:02:07 437.405
BEESAT 05 May 14:54:49 14:59:19 40° 98° (E) 15:03:47 436.000
AO-7 05 May 14:56:15 15:04:08 51° 62° (ENE) 15:12:02 29.400- 29.500
O/OREOS (USA 219) 05 May 15:36:57 15:41:09 35° 301° (WNW) 15:45:23 437.305
Cosmos 2491 05 May 15:41:16 15:45:10 13° 52° (NE) 15:49:02 435.465 / 435.565
ITAMSAT 1 05 May 15:49:36 15:54:09 31° 264° (W) 15:58:44 435.822/435.867
SO-50 05 May 15:50:40 15:55:20 58° 240° (WSW) 15:59:49 436.795
ITUPSAT 1 05 May 15:51:52 15:56:33 58° 288° (WNW) 16:01:14 437.325
SWISSCUBE 05 May 15:59:43 16:04:14 43° 290° (WNW) 16:08:45 437.505
DANDE 05 May 16:05:18 16:08:23 77° 282° (WNW) 16:12:26 436.750
KKS-1 05 May 16:09:20 16:13:19 31° 96° (E) 16:17:14 437.445
STARS 05 May 16:17:56 16:21:12 20° 93° (E) 16:24:25 437.465
PCSat 05 May 16:20:03 16:25:18 49° 307° (NW) 16:30:35 145.827
BEESAT 05 May 16:33:04 16:36:53 24° 296° (WNW) 16:40:43 436.000
MOZHAYETS 4 05 May 16:35:03 16:39:21 39° 98° (E) 16:43:37
NOAA 15 05 May 16:35:11 16:38:09 15° 57° (ENE) 16:41:09 137.62
HORYU 2 05 May 16:35:42 16:40:07 63° 73° (ENE) 16:44:32 437.375
CUSAT 1 05 May 16:37:17 16:40:07 18° 300° (WNW) 16:43:29 437.405
NOAA 18 05 May 16:42:19 16:45:46 17° 58° (ENE) 16:49:12 137.9125
Cubesat XI-IV 05 May 16:49:04 16:51:40 14° 56° (ENE) 16:54:15 437.490
AO-7 05 May 16:49:25 16:57:03 40° 262° (W) 17:04:45 29.400- 29.500
GOMX 1 05 May 17:27:08 17:29:51 14° 57° (ENE) 17:32:37 467.674
Cosmos 2491 05 May 17:35:31 17:44:14 60° 76° (ENE) 17:52:52 435.465 / 435.565
CUTE-I 05 May 17:40:47 17:45:36 36° 67° (ENE) 17:50:26 437.470
BEESAT 3 05 May 17:43:31 17:47:07 35° 117° (ESE) 17:50:45 437.485
KKS-1 05 May 17:45:59 17:49:48 28° 293° (WNW) 17:53:35 437.445
YUBILEINY 05 May 17:49:10 17:56:18 29° 82° (E) 18:03:24 435.215
STARS 05 May 17:53:35 17:57:44 41° 290° (WNW) 18:01:51 437.465
HO-68 05 May 17:54:45 17:57:08 12° 45° (NE) 17:59:30 435.675
BEESAT 2 05 May 17:57:16 18:00:44 29° 115° (ESE) 18:04:14 435.950
LilacSat-2 05 May 18:05:53 18:09:36 46° 73° (ENE) 18:13:19 437.200
BRITE-PL 05 May 18:07:09 18:11:59 55° 72° (ENE) 18:17:15 437.365/2234.400
PCSat 05 May 18:07:52 18:10:04 12° 330° (NNW) 18:12:17 145.827
NOAA 15 05 May 18:11:57 18:17:14 84° 256° (WSW) 18:22:34 137.62
MOZHAYETS 4 05 May 18:12:42 18:16:19 24° 295° (WNW) 18:19:56
HORYU 2 05 May 18:14:51 18:17:06 14° 270° (W) 18:19:20 437.375
NOAA 18 05 May 18:20:15 18:25:46 79° 255° (WSW) 18:31:18 137.9125
Cubesat XI-IV 05 May 18:25:37 18:30:57 87° 74° (ENE) 18:36:19 437.490
CUBESAT XI-V 05 May 18:28:41 18:33:24 68° 102° (ESE) 18:38:06 437.345
M-CUBED/EXP-1 PRIME 05 May 18:34:50 18:39:26 54° 67° (ENE) 18:43:55 437.505
DOVE 4 05 May 18:42:11 18:46:48 33° 67° (ENE) 18:51:31 437.250
AUBIESAT-1 05 May 18:50:37 18:55:13 64° 68° (ENE) 18:59:39 437.475
GOMX 1 05 May 19:01:55 19:07:03 89° 73° (ENE) 19:12:31 467.674
CINEMA 3 05 May 19:03:01 19:06:26 19° 63° (ENE) 19:09:49 145.822/145.860
RS-15 05 May 19:12:52 19:14:55 11° 91° (E) 19:17:00 29.354- 29.394
Cosmos 2504 05 May 19:15:56 19:21:16 23° 82° (E) 19:26:35 435.465 / 435.565
CUTE-I 05 May 19:20:57 19:25:40 32° 264° (W) 19:30:24 437.470
BEESAT 3 05 May 19:21:33 19:24:54 26° 316° (NW) 19:28:15 437.485
AAUSAT CUBESAT 2 05 May 19:26:25 19:26:50 10° 60° (ENE) 19:27:15 437.432
STRAND 1 05 May 19:28:28 19:32:40 25° 94° (E) 19:36:51 437.568
CUBEBUG 2 05 May 19:30:14 19:31:31 11° 59° (ENE) 19:32:48 437.445
AO-85 05 May 19:32:50 19:36:33 21° 36° (NE) 19:40:02 145.980
Cosmos 2491 05 May 19:33:06 19:40:31 32° 277° (W) 19:47:54 435.465 / 435.565
BEESAT 2 05 May 19:35:00 19:38:33 30° 314° (NW) 19:42:07 435.950
HO-68 05 May 19:36:23 19:43:17 53° 66° (ENE) 19:50:11 435.675
CANX-2 05 May 19:39:58 19:43:50 36° 70° (ENE) 19:47:42 2200.000
LilacSat-2 05 May 19:42:03 19:44:09 14° 269° (W) 19:46:15 437.200
YUBILEINY 05 May 19:43:47 19:52:26 65° 282° (WNW) 20:01:06 435.215
BRITE-PL 05 May 19:47:17 19:50:53 20° 271° (W) 19:54:42 437.365/2234.400
AIST 2 05 May 19:55:40 19:59:29 37° 117° (ESE) 20:03:20 435.215
NOAA 15 05 May 19:56:35 19:57:48 11° 273° (W) 19:59:00 137.62
NOAA 18 05 May 20:06:08 20:07:16 11° 273° (W) 20:08:24 137.9125
CUBESAT XI-V 05 May 20:07:31 20:10:15 15° 299° (WNW) 20:12:58 437.345
Cubesat XI-IV 05 May 20:09:29 20:11:43 13° 272° (W) 20:13:58 437.490
M-CUBED/EXP-1 PRIME 05 May 20:10:54 20:14:12 19° 263° (W) 20:17:27 437.505
CUTE 1.7 + AOD 2 05 May 20:11:44 20:15:55 71° 75° (ENE) 20:20:08 437.475
Oscar 11 05 May 20:12:59 20:15:25 15° 62° (ENE) 20:17:51 145.826/435.025
DOVE 4 05 May 20:19:41 20:24:24 35° 265° (W) 20:29:15 437.250
AUBIESAT-1 05 May 20:27:18 20:29:59 15° 264° (W) 20:32:39 437.475
FUNcube-1 05 May 20:28:45 20:31:49 19° 64° (ENE) 20:34:52 145.935
COMPASS 1 05 May 20:30:08 20:34:12 59° 74° (ENE) 20:38:17 437.405
SEEDS 05 May 20:32:54 20:37:05 89° 71° (ENE) 20:41:16 437.485
CINEMA 3 05 May 20:38:07 20:43:06 62° 260° (W) 20:48:03 145.822/145.860
GOMX 1 05 May 20:43:49 20:45:55 12° 275° (W) 20:48:05 467.674
UWE-3 05 May 20:48:25 20:52:46 43° 71° (ENE) 20:57:03 435.000/436.395/437.385
AAUSAT CUBESAT 2 05 May 20:57:33 21:01:40 84° 260° (W) 21:05:48 437.432
CUBEBUG 2 05 May 21:02:42 21:07:25 85° 76° (ENE) 21:12:04 437.445
